Location: Godzisko
(49.9648°N, 19.4576°E)
Time: 00:50:51
(UTC+00:00)

NOSS 3-3 (A) - Pass Details

Date: 20 April 2021
Orbit: 805 x 1407 km, 63.4° (Epoch: 08 May)

Event Time Altitude Azimuth Distance (km) Brightness Sun altitude
Exits shadow 00:58:21 43° 210° (SSW) 1,261 4.1 -21.6°
Maximum altitude 01:00:27 81° 129° (SE) 961 3.9 -21.4°
Drops below altitude 10° 01:07:09 10° 44° (NE) 2,883 7.6 -20.7°
Sets 01:10:00 0° 44° (NE) 3,936 8.8 -20.4°
